This is the latest recevied weather packets stored in our database for station/object NY3Q. If no packets are shown the sender has not sent any weather packets the latest 10 day(s).
| Time | Temp. | Humidity | Pressure | Rain* | Wind** | Luminosity | Snow |
|---|---|---|---|---|---|---|---|
| 1787763072 | 33.33° C | 56% | 1017.2 hPa | 0 mm | - | 563 W/m² | - |
| 1787762771 | 32.78° C | 55% | 1017.4 hPa | 0 mm | - | 570 W/m² | - |
| 1787762466 | 32.22° C | 61% | 1017.6 hPa | 0 mm | - | 492 W/m² | - |
| 1787762162 | 31.67° C | 63% | 1017.8 hPa | 0 mm | - | 584 W/m² | - |
| 1787761858 | 31.11° C | 68% | 1017.9 hPa | 0 mm | - | 609 W/m² | - |
| 1787761553 | 31.67° C | 65% | 1018.2 hPa | 0 mm | - | 191 W/m² | - |
| 1787761249 | 32.22° C | 64% | 1018.2 hPa | 0 mm | - | 215 W/m² | - |
| 1787760947 | 32.22° C | 65% | 1018.1 hPa | 0 mm | - | 282 W/m² | - |
| 1787760645 | 32.22° C | 63% | 1018 hPa | 0 mm | - | 299 W/m² | - |
| 1787760344 | 32.78° C | 67% | 1018.1 hPa | 0 mm | - | 431 W/m² | - |
| 1787760040 | 32.78° C | 68% | 1018.1 hPa | 0 mm | - | 317 W/m² | - |
| 1787759738 | 32.22° C | 68% | 1018.1 hPa | 0 mm | - | 454 W/m² | - |
| 1787759433 | 32.22° C | 69% | 1018.1 hPa | 0 mm | - | 575 W/m² | - |
| 1787759129 | 31.67° C | 69% | 1018.1 hPa | 0 mm | - | 556 W/m² | - |
| 1787758827 | 31.67° C | 70% | 1018.2 hPa | 0 mm | - | 532 W/m² | - |
| 1787758524 | 31.67° C | 74% | 1018.3 hPa | 0 mm | - | 536 W/m² | - |
| 1787758226 | 31.11° C | 75% | 1018.2 hPa | 0 mm | - | 603 W/m² | - |
| 1787757917 | 31.11° C | 75% | 1018.2 hPa | 0 mm | - | 465 W/m² | - |
| 1787757614 | 30.56° C | 78% | 1018.3 hPa | 0 mm | - | 651 W/m² | - |
| 1787757313 | 30° C | 81% | 1018.2 hPa | 0 mm | - | 664 W/m² | - |
| 1787757007 | 29.44° C | 82% | 1018.3 hPa | 0 mm | - | 453 W/m² | - |
| 1787756702 | 28.89° C | 83% | 1018.3 hPa | 0 mm | - | 318 W/m² | - |
* Rain latest hour (hover to see other rain measurements)
** Current wind speed in m/s (hover to see current wind gust speed)